• In Czech Republic
  • List of Countries
  • For 7 days
  • Water Temperature
  • Satellite Maps
  • Weather Map
  • Weather Widgets
  • user-avatar
    Login

    Hourly Weather Roeselare

    Today, 15 December, Friday

    Time Temperature Precipitation Wind Pressure Humidity
    00:00 0°C° 0 mm 5 mps 741 mmHg 88%
    01:00 0°C° 0 mm 5 mps 741 mmHg 89%
    02:00 0°C° 0 mm 5 mps 741 mmHg 90%
    03:00 0°C° 0 mm 5 mps 741 mmHg 90%
    04:00 0°C° 0 mm 5 mps 741 mmHg 91%
    05:00 0°C° 0 mm 4 mps 741 mmHg 91%
    06:00 0°C° 0 mm 4 mps 741 mmHg 92%
    07:00 0°C° 0 mm 4 mps 742 mmHg 91%
    08:00 +1°C° 0 mm 3 mps 742 mmHg 90%
    09:00 +2°C° 0 mm 3 mps 742 mmHg 90%
    10:00 +2°C° 0.2 mm 3 mps 743 mmHg 89%
    11:00 +3°C° 0.2 mm 3 mps 743 mmHg 88%
    12:00 +4°C° 0.2 mm 3 mps 744 mmHg 87%
    13:00 +4°C° 0.2 mm 3 mps 744 mmHg 88%
    14:00 +4°C° 0.2 mm 3 mps 745 mmHg 89%
    15:00 +3°C° 0.2 mm 3 mps 745 mmHg 90%
    16:00 +3°C° 0.2 mm 3 mps 746 mmHg 89%
    17:00 +3°C° 0.2 mm 4 mps 747 mmHg 88%
    18:00 +2°C° 0.2 mm 5 mps 748 mmHg 87%
    19:00 +3°C° 0 mm 4 mps 749 mmHg 87%
    20:00 +3°C° 0 mm 4 mps 750 mmHg 87%
    21:00 +3°C° 0 mm 4 mps 751 mmHg 87%
    22:00 +1°C° 0.1 mm 4 mps 751 mmHg 87%
    23:00 +1°C° 0.1 mm 4 mps 752 mmHg 87%

    Tomorrow, 16 December, Saturday

    Time Temperature Precipitation Wind Pressure Humidity
    00:00 +1°C° 0.1 mm 4 mps 753 mmHg 87%
    01:00 +1°C° 0.1 mm 5 mps 754 mmHg 85%
    02:00 +2°C° 0.1 mm 5 mps 754 mmHg 84%
    03:00 +2°C° 0.1 mm 5 mps 755 mmHg 83%
    04:00 +2°C° 0.2 mm 5 mps 756 mmHg 83%
    05:00 +2°C° 0.2 mm 5 mps 756 mmHg 83%
    06:00 +2°C° 0.2 mm 6 mps 757 mmHg 82%
    07:00 +2°C° 0.2 mm 6 mps 757 mmHg 82%
    08:00 +2°C° 0.2 mm 6 mps 758 mmHg 82%
    09:00 +2°C° 0.2 mm 6 mps 758 mmHg 82%
    10:00 +2°C° 0.2 mm 6 mps 759 mmHg 79%
    11:00 +3°C° 0.2 mm 6 mps 759 mmHg 76%
    12:00 +3°C° 0.2 mm 7 mps 760 mmHg 74%
    13:00 +3°C° 0.1 mm 6 mps 760 mmHg 74%
    14:00 +3°C° 0.1 mm 6 mps 760 mmHg 75%
    15:00 +2°C° 0.1 mm 6 mps 761 mmHg 76%
    16:00 +2°C° 0.1 mm 5 mps 761 mmHg 77%
    17:00 +1°C° 0.1 mm 5 mps 762 mmHg 79%
    18:00 +1°C° 0.1 mm 5 mps 762 mmHg 80%
    19:00 +1°C° 0.1 mm 5 mps 763 mmHg 81%
    20:00 +1°C° 0.1 mm 5 mps 764 mmHg 82%
    21:00 +1°C° 0.1 mm 5 mps 764 mmHg 82%
    22:00 +1°C° 0.1 mm 5 mps 764 mmHg 83%
    23:00 0°C° 0.1 mm 5 mps 765 mmHg 83%

    Day after tomorrow, 17 December, Sunday

    Time Temperature Precipitation Wind Pressure Humidity
    00:00 0°C° 0.1 mm 4 mps 765 mmHg 84%
    01:00 0°C° 0.1 mm 4 mps 765 mmHg 84%
    02:00 0°C° 0.1 mm 4 mps 766 mmHg 83%
    03:00 0°C° 0.1 mm 4 mps 766 mmHg 83%
    04:00 0°C° 0 mm 4 mps 766 mmHg 84%
    05:00 0°C° 0 mm 4 mps 766 mmHg 84%
    06:00 0°C° 0 mm 4 mps 767 mmHg 84%
    07:00 0°C° 0 mm 4 mps 767 mmHg 83%
    08:00 0°C° 0 mm 4 mps 767 mmHg 81%
    09:00 +1°C° 0 mm 4 mps 768 mmHg 80%
    10:00 +3°C° 0 mm 4 mps 768 mmHg 78%
    11:00 +3°C° 0 mm 5 mps 768 mmHg 75%
    12:00 +5°C° 0 mm 5 mps 768 mmHg 73%
    13:00 +5°C° 0 mm 5 mps 768 mmHg 76%
    14:00 +3°C° 0 mm 5 mps 767 mmHg 78%
    15:00 +3°C° 0 mm 5 mps 767 mmHg 81%
    16:00 +3°C° 0 mm 5 mps 767 mmHg 83%
    17:00 +3°C° 0 mm 6 mps 767 mmHg 85%
    18:00 +3°C° 0 mm 7 mps 767 mmHg 87%
    19:00 +4°C° 0.2 mm 7 mps 766 mmHg 88%
    20:00 +4°C° 0.2 mm 8 mps 766 mmHg 88%
    21:00 +5°C° 0.2 mm 8 mps 765 mmHg 89%
    22:00 +6°C° 0.6 mm 9 mps 765 mmHg 89%
    23:00 +6°C° 0.6 mm 9 mps 765 mmHg 89%

    18 December, Monday

    Time Temperature Precipitation Wind Pressure Humidity
    00:00 +7°C° 0.6 mm 9 mps 765 mmHg 89%
    01:00 +7°C° 0.2 mm 8 mps 765 mmHg 89%
    02:00 +7°C° 0.2 mm 8 mps 765 mmHg 90%
    03:00 +8°C° 0.2 mm 7 mps 765 mmHg 90%
    04:00 +7°C° 0 mm 6 mps 765 mmHg 88%
    05:00 +6°C° 0 mm 5 mps 766 mmHg 85%
    06:00 +5°C° 0 mm 5 mps 766 mmHg 83%
    07:00 +5°C° 0 mm 4 mps 767 mmHg 83%
    08:00 +5°C° 0 mm 4 mps 768 mmHg 83%
    09:00 +5°C° 0 mm 4 mps 768 mmHg 82%
    10:00 +5°C° 0 mm 4 mps 769 mmHg 78%
    11:00 +6°C° 0 mm 4 mps 769 mmHg 75%
    12:00 +7°C° 0 mm 4 mps 769 mmHg 71%
    13:00 +7°C° 0 mm 4 mps 770 mmHg 74%
    14:00 +7°C° 0 mm 3 mps 770 mmHg 77%
    15:00 +7°C° 0 mm 3 mps 770 mmHg 81%
    16:00 +6°C° 0 mm 2 mps 770 mmHg 83%
    17:00 +5°C° 0 mm 2 mps 771 mmHg 86%
    18:00 +5°C° 0 mm 2 mps 771 mmHg 88%
    19:00 +4°C° 0 mm 2 mps 772 mmHg 89%
    20:00 +5°C° 0 mm 1 mps 772 mmHg 89%
    21:00 +5°C° 0 mm 1 mps 773 mmHg 90%
    22:00 +5°C° 0 mm 1 mps 773 mmHg 90%
    23:00 +5°C° 0 mm 1 mps 773 mmHg 90%

    19 December, Tuesday

    Time Temperature Precipitation Wind Pressure Humidity
    00:00 +5°C° 0 mm 1 mps 773 mmHg 90%
    01:00 +4°C° 0 mm 1 mps 774 mmHg 91%
    02:00 +4°C° 0 mm 1 mps 774 mmHg 91%
    03:00 +4°C° 0 mm 1 mps 774 mmHg 91%
    04:00 +4°C° 0 mm 1 mps 774 mmHg 91%
    05:00 +4°C° 0 mm 1 mps 774 mmHg 90%
    06:00 +4°C° 0 mm 1 mps 774 mmHg 90%
    07:00 +3°C° 0 mm 2 mps 775 mmHg 90%
    08:00 +3°C° 0 mm 2 mps 775 mmHg 89%
    09:00 +2°C° 0 mm 3 mps 776 mmHg 89%
    10:00 +3°C° 0 mm 3 mps 776 mmHg 85%
    11:00 +4°C° 0 mm 3 mps 776 mmHg 81%
    12:00 +5°C° 0 mm 3 mps 776 mmHg 78%
    13:00 +5°C° 0 mm 3 mps 776 mmHg 80%
    14:00 +5°C° 0 mm 3 mps 775 mmHg 82%
    15:00 +4°C° 0 mm 3 mps 775 mmHg 84%
    16:00 +4°C° 0 mm 3 mps 775 mmHg 85%
    17:00 +3°C° 0 mm 3 mps 776 mmHg 87%
    18:00 +3°C° 0 mm 4 mps 776 mmHg 88%
    19:00 +3°C° 0.2 mm 4 mps 776 mmHg 87%
    20:00 +4°C° 0.2 mm 4 mps 776 mmHg 86%
    21:00 +4°C° 0.2 mm 4 mps 776 mmHg 85%
    22:00 +4°C° 0.1 mm 4 mps 776 mmHg 85%
    23:00 +4°C° 0.1 mm 4 mps 776 mmHg 86%

    20 December, Wednesday

    Time Temperature Precipitation Wind Pressure Humidity
    00:00 +5°C° 0.1 mm 4 mps 776 mmHg 86%
    01:00 +5°C° 0.1 mm 4 mps 776 mmHg 88%
    02:00 +5°C° 0.1 mm 4 mps 776 mmHg 91%
    03:00 +5°C° 0.1 mm 3 mps 776 mmHg 93%
    04:00 +7°C° 0.1 mm 3 mps 776 mmHg 94%
    05:00 +7°C° 0.1 mm 3 mps 776 mmHg 95%
    06:00 +7°C° 0.1 mm 3 mps 776 mmHg 96%
    07:00 +8°C° 0 mm 3 mps 776 mmHg 96%
    08:00 +8°C° 0 mm 3 mps 777 mmHg 96%
    09:00 +8°C° 0 mm 3 mps 777 mmHg 96%
    10:00 +9°C° 0 mm 3 mps 777 mmHg 95%
    11:00 +10°C° 0 mm 3 mps 777 mmHg 93%
    12:00 +10°C° 0 mm 3 mps 777 mmHg 92%
    13:00 +10°C° 0 mm 3 mps 777 mmHg 92%
    14:00 +10°C° 0 mm 3 mps 777 mmHg 93%
    15:00 +10°C° 0 mm 3 mps 777 mmHg 94%
    16:00 +9°C° 0 mm 3 mps 777 mmHg 95%
    17:00 +9°C° 0 mm 3 mps 777 mmHg 95%
    18:00 +8°C° 0 mm 3 mps 778 mmHg 96%
    19:00 +8°C° 0 mm 2 mps 778 mmHg 96%
    20:00 +8°C° 0 mm 2 mps 778 mmHg 96%
    21:00 +8°C° 0 mm 2 mps 778 mmHg 96%
    22:00 +7°C° 0 mm 2 mps 778 mmHg 96%
    23:00 +7°C° 0 mm 2 mps 778 mmHg 96%
    Show more